DLH357 EDDM-EDDB

Flight info

Callsign DLH357
Flight time 0h 41m
Altitude 29000
Route AKINI1N/26R AKINI Y104 MAMOR L132 RUDNO T203 TIVDA DCT ETVIS DCT NAVEK DCT GAVLI/N0445F300 T203 ATGUP ATGUP1R
Aircraft A320/M-SDE3FGHIRWY/LB1

Departure

Time 2026-05-07 20:13
Airport Munich Airport (EDDM)

Arrival

Time 2026-05-07 20:54
Airport Berlin Brandenburg Airport (EDDB)
Time Latitude Longitude Altitude Speed Heading
2026-05-07 19:49 48.35498 11.79298 1485 ft 0 kts 263°
2026-05-07 20:04 48.35498 11.79299 1485 ft 2 kts 263°
2026-05-07 20:04 48.35501 11.79336 1485 ft 4 kts 266°
2026-05-07 20:04 48.35502 11.79376 1485 ft 4 kts 271°
2026-05-07 20:05 48.35499 11.79416 1477 ft 4 kts 286°
2026-05-07 20:05 48.35488 11.79448 1478 ft 4 kts 336°
2026-05-07 20:05 48.35483 11.79451 1477 ft 0 kts 349°
2026-05-07 20:07 48.35487 11.79450 1475 ft 4 kts 349°
2026-05-07 20:07 48.35540 11.79447 1481 ft 8 kts 16°
2026-05-07 20:07 48.35586 11.79477 1481 ft 10 kts 25°
2026-05-07 20:08 48.35670 11.79526 1473 ft 14 kts 17°
2026-05-07 20:08 48.35769 11.79537 1485 ft 15 kts 354°
2026-05-07 20:08 48.35876 11.79517 1482 ft 16 kts 353°
2026-05-07 20:08 48.35992 11.79496 1483 ft 17 kts 354°
2026-05-07 20:09 48.36100 11.79540 1476 ft 17 kts 55°
2026-05-07 20:09 48.36123 11.79718 1472 ft 18 kts 83°
2026-05-07 20:09 48.36139 11.79910 1476 ft 19 kts 84°
2026-05-07 20:10 48.36163 11.80214 1475 ft 24 kts 83°
2026-05-07 20:10 48.36177 11.80405 1485 ft 33 kts 84°
2026-05-07 20:10 48.36209 11.80823 1475 ft 41 kts 83°
2026-05-07 20:10 48.36237 11.81181 1478 ft 25 kts 83°
2026-05-07 20:11 48.36257 11.81441 1485 ft 25 kts 83°
2026-05-07 20:11 48.36278 11.81709 1480 ft 26 kts 83°
2026-05-07 20:11 48.36331 11.81949 1481 ft 24 kts 42°
2026-05-07 20:11 48.36469 11.82000 1476 ft 20 kts 359°
2026-05-07 20:12 48.36568 11.81980 1475 ft 18 kts 352°
2026-05-07 20:12 48.36665 11.81831 1476 ft 31 kts 261°
2026-05-07 20:12 48.36620 11.81230 1485 ft 91 kts 263°
2026-05-07 20:12 48.36526 11.80011 1482 ft 145 kts 263°
2026-05-07 20:13 48.36391 11.78334 1721 ft 168 kts 263°
2026-05-07 20:13 48.36241 11.76567 2379 ft 170 kts 264°
2026-05-07 20:13 48.36103 11.74774 2948 ft 179 kts 264°
2026-05-07 20:13 48.35954 11.72800 3229 ft 201 kts 264°
2026-05-07 20:14 48.35794 11.70594 3490 ft 224 kts 267°
2026-05-07 20:14 48.36058 11.68253 4107 ft 232 kts 295°
2026-05-07 20:14 48.37020 11.66338 4947 ft 234 kts 321°
2026-05-07 20:14 48.38487 11.65279 5748 ft 238 kts 346°
2026-05-07 20:15 48.40140 11.64764 6240 ft 258 kts 347°
2026-05-07 20:15 48.41956 11.64220 6794 ft 272 kts 347°
2026-05-07 20:15 48.43807 11.63695 7021 ft 276 kts 351°
2026-05-07 20:15 48.45620 11.63685 7074 ft 278 kts
2026-05-07 20:16 48.47487 11.64482 7093 ft 282 kts 23°
2026-05-07 20:16 48.49139 11.66120 7816 ft 288 kts 40°
2026-05-07 20:16 48.50477 11.68401 8628 ft 295 kts 52°
2026-05-07 20:16 48.51703 11.70917 9409 ft 300 kts 52°
2026-05-07 20:17 48.53025 11.73309 10147 ft 302 kts 38°
2026-05-07 20:17 48.54764 11.75219 10520 ft 320 kts 31°
2026-05-07 20:17 48.56590 11.77055 10726 ft 342 kts 30°
2026-05-07 20:17 48.58651 11.79086 10894 ft 365 kts 30°
2026-05-07 20:18 48.60835 11.81227 11219 ft 380 kts 30°
2026-05-07 20:18 48.62992 11.83353 11827 ft 385 kts 31°
2026-05-07 20:18 48.65245 11.85594 12514 ft 389 kts 31°
2026-05-07 20:18 48.67500 11.87854 13193 ft 393 kts 31°
2026-05-07 20:19 48.69784 11.90156 13884 ft 396 kts 31°
2026-05-07 20:19 48.72089 11.92482 14474 ft 399 kts 31°
2026-05-07 20:19 48.74410 11.94821 15064 ft 402 kts 31°
2026-05-07 20:19 48.76716 11.97144 15624 ft 405 kts 31°
2026-05-07 20:20 48.79076 11.99519 16188 ft 408 kts 31°
2026-05-07 20:20 48.81424 12.01888 16735 ft 411 kts 31°
2026-05-07 20:20 48.83815 12.04307 17286 ft 414 kts 31°
2026-05-07 20:20 48.86218 12.06743 17841 ft 417 kts 31°
2026-05-07 20:21 48.88637 12.09195 18364 ft 420 kts 30°
2026-05-07 20:21 48.91076 12.11670 18861 ft 422 kts 31°
2026-05-07 20:21 48.93523 12.14156 19346 ft 424 kts 31°
2026-05-07 20:21 48.95946 12.16621 19805 ft 426 kts 31°
2026-05-07 20:22 48.98395 12.19114 20249 ft 429 kts 31°
2026-05-07 20:22 49.00883 12.21645 20687 ft 431 kts 31°
2026-05-07 20:22 49.03382 12.24190 21108 ft 434 kts 31°
2026-05-07 20:22 49.05899 12.26760 21535 ft 436 kts 31°
2026-05-07 20:23 49.08425 12.29344 21954 ft 439 kts 31°
2026-05-07 20:23 49.10969 12.31949 22410 ft 441 kts 31°
2026-05-07 20:23 49.13519 12.34558 22842 ft 442 kts 31°
2026-05-07 20:23 49.16079 12.37181 23245 ft 444 kts 31°
2026-05-07 20:24 49.18648 12.39826 23637 ft 447 kts 32°
2026-05-07 20:24 49.21232 12.42492 23967 ft 449 kts 32°
2026-05-07 20:24 49.23794 12.45131 24300 ft 451 kts 32°
2026-05-07 20:24 49.26398 12.47819 24627 ft 453 kts 31°
2026-05-07 20:25 49.29016 12.50517 24960 ft 455 kts 31°
2026-05-07 20:25 49.31642 12.53229 25298 ft 456 kts 32°
2026-05-07 20:25 49.34262 12.55946 25639 ft 457 kts 31°
2026-05-07 20:25 49.36878 12.58667 25941 ft 458 kts 31°
2026-05-07 20:26 49.39525 12.61415 26230 ft 460 kts 31°
2026-05-07 20:26 49.42181 12.64171 26510 ft 462 kts 31°
2026-05-07 20:26 49.44950 12.66652 26788 ft 460 kts 23°
2026-05-07 20:26 49.47801 12.68751 27059 ft 462 kts 22°
2026-05-07 20:27 49.50701 12.70874 27443 ft 461 kts 22°
2026-05-07 20:27 49.53593 12.73001 27901 ft 459 kts 22°
2026-05-07 20:27 49.56461 12.75124 28317 ft 457 kts 23°
2026-05-07 20:27 49.59320 12.77249 28737 ft 456 kts 23°
2026-05-07 20:28 49.62181 12.79372 29130 ft 455 kts 22°
2026-05-07 20:28 49.65097 12.81219 29513 ft 452 kts 15°
2026-05-07 20:28 49.68097 12.82384 29897 ft 448 kts
2026-05-07 20:28 49.71121 12.83066 30270 ft 446 kts
2026-05-07 20:29 49.74191 12.83753 30599 ft 446 kts
2026-05-07 20:29 49.77258 12.84452 30894 ft 446 kts
2026-05-07 20:29 49.80329 12.85161 31167 ft 447 kts
2026-05-07 20:29 49.83403 12.85876 31446 ft 448 kts
2026-05-07 20:30 49.86370 12.86568 31709 ft 448 kts
2026-05-07 20:30 49.89464 12.87291 31982 ft 449 kts
2026-05-07 20:30 49.92552 12.88010 32250 ft 450 kts
2026-05-07 20:30 49.95653 12.88729 32540 ft 451 kts
2026-05-07 20:31 49.98717 12.89440 32830 ft 451 kts
2026-05-07 20:31 50.01735 12.90141 33095 ft 452 kts
2026-05-07 20:31 50.04808 12.90858 33360 ft 453 kts
2026-05-07 20:31 50.07928 12.91587 33624 ft 454 kts
2026-05-07 20:32 50.11055 12.92317 33894 ft 455 kts
2026-05-07 20:32 50.14183 12.93046 34139 ft 456 kts
2026-05-07 20:32 50.17319 12.93777 34360 ft 457 kts
2026-05-07 20:32 50.20440 12.94509 34579 ft 457 kts
2026-05-07 20:33 50.23460 12.95222 34842 ft 456 kts
2026-05-07 20:33 50.26645 12.96030 35084 ft 457 kts 11°
2026-05-07 20:33 50.29664 12.97401 35295 ft 460 kts 19°
2026-05-07 20:33 50.32577 12.99486 35503 ft 462 kts 25°
2026-05-07 20:34 50.35444 13.01767 35693 ft 462 kts 25°
2026-05-07 20:34 50.38237 13.03987 35869 ft 463 kts 25°
2026-05-07 20:34 50.41105 13.06266 36015 ft 465 kts 25°
2026-05-07 20:35 50.46925 13.10876 36063 ft 470 kts 25°
2026-05-07 20:35 50.52725 13.15492 36065 ft 471 kts 25°
2026-05-07 20:36 50.58460 13.20092 36072 ft 472 kts 25°
2026-05-07 20:36 50.64304 13.24799 36073 ft 472 kts 26°
2026-05-07 20:37 50.70141 13.29512 36075 ft 472 kts 26°
2026-05-07 20:37 50.75880 13.34156 36076 ft 472 kts 26°
2026-05-07 20:38 50.81680 13.38860 36083 ft 472 kts 26°
2026-05-07 20:38 50.87514 13.43608 36091 ft 471 kts 26°
2026-05-07 20:39 50.93247 13.47912 36096 ft 470 kts 18°
2026-05-07 20:39 50.99579 13.50163 36100 ft 467 kts
2026-05-07 20:40 51.05951 13.51872 36106 ft 467 kts
2026-05-07 20:40 51.12237 13.53557 36120 ft 467 kts
2026-05-07 20:41 51.18626 13.55280 36132 ft 465 kts
2026-05-07 20:41 51.24973 13.57009 36128 ft 464 kts
2026-05-07 20:42 51.31270 13.58729 36125 ft 463 kts
2026-05-07 20:42 51.37609 13.60462 36107 ft 460 kts
2026-05-07 20:42 51.40733 13.61313 35791 ft 454 kts
2026-05-07 20:43 51.43611 13.62095 35011 ft 458 kts
2026-05-07 20:43 51.46874 13.62978 34289 ft 460 kts
2026-05-07 20:43 51.50017 13.63834 33715 ft 456 kts
2026-05-07 20:43 51.53135 13.64691 32891 ft 456 kts
2026-05-07 20:44 51.56213 13.65541 32104 ft 457 kts
2026-05-07 20:44 51.59369 13.65948 31329 ft 455 kts 356°
2026-05-07 20:44 51.62357 13.65083 30709 ft 449 kts 341°
2026-05-07 20:44 51.65279 13.63360 30113 ft 444 kts 340°
2026-05-07 20:45 51.68142 13.61625 29321 ft 439 kts 340°
2026-05-07 20:45 51.71016 13.59881 28275 ft 442 kts 340°
2026-05-07 20:45 51.73882 13.58140 27416 ft 439 kts 340°
2026-05-07 20:45 51.76766 13.56391 26264 ft 444 kts 340°
2026-05-07 20:46 51.79653 13.54639 25359 ft 443 kts 340°
2026-05-07 20:46 51.82566 13.52864 24071 ft 451 kts 340°
2026-05-07 20:46 51.85466 13.51092 23015 ft 451 kts 340°
2026-05-07 20:46 51.88391 13.49300 22099 ft 448 kts 339°
2026-05-07 20:47 51.91294 13.47521 21257 ft 444 kts 339°
2026-05-07 20:47 51.94168 13.45757 20480 ft 440 kts 339°
2026-05-07 20:47 51.96979 13.44029 19644 ft 437 kts 339°
2026-05-07 20:47 51.99800 13.42297 18371 ft 431 kts 339°
2026-05-07 20:48 52.02583 13.40586 16894 ft 425 kts 339°
2026-05-07 20:48 52.05328 13.38891 15534 ft 418 kts 339°
2026-05-07 20:48 52.08022 13.37220 14229 ft 412 kts 339°
2026-05-07 20:48 52.10657 13.35494 12831 ft 405 kts 333°
2026-05-07 20:49 52.12851 13.32816 11546 ft 397 kts 314°
2026-05-07 20:49 52.14782 13.29660 10185 ft 391 kts 322°
2026-05-07 20:49 52.17084 13.27423 8836 ft 382 kts 334°
2026-05-07 20:49 52.19457 13.25541 7483 ft 376 kts 335°
2026-05-07 20:50 52.21814 13.23840 6187 ft 368 kts 343°
2026-05-07 20:50 52.24281 13.22984 5050 ft 354 kts 355°
2026-05-07 20:50 52.26616 13.23039 4663 ft 320 kts 15°
2026-05-07 20:50 52.28499 13.24532 4447 ft 289 kts 39°
2026-05-07 20:51 52.29738 13.26908 4011 ft 272 kts 63°
2026-05-07 20:51 52.30446 13.29676 3580 ft 258 kts 69°
2026-05-07 20:51 52.31079 13.32344 3140 ft 245 kts 69°
2026-05-07 20:51 52.31678 13.34836 2471 ft 230 kts 68°
2026-05-07 20:52 52.32262 13.37181 1975 ft 214 kts 69°
2026-05-07 20:52 52.32769 13.39380 1508 ft 202 kts 69°
2026-05-07 20:52 52.33277 13.41469 1123 ft 190 kts 67°
2026-05-07 20:52 52.33739 13.43415 791 ft 177 kts 68°
2026-05-07 20:53 52.34151 13.45194 530 ft 159 kts 67°
2026-05-07 20:53 52.34542 13.46845 215 ft 151 kts 67°
2026-05-07 20:53 52.34883 13.48259 156 ft 112 kts 68°
2026-05-07 20:53 52.35103 13.49184 154 ft 75 kts 69°
2026-05-07 20:54 52.35272 13.49905 154 ft 62 kts 69°
2026-05-07 20:54 52.35415 13.50449 154 ft 34 kts 55°
2026-05-07 20:54 52.35579 13.50668 154 ft 30 kts 40°
2026-05-07 20:54 52.35732 13.50838 154 ft 3 kts 15°
2026-05-07 20:55 52.35737 13.50836 154 ft 3 kts 352°
2026-05-07 20:55 52.35751 13.50833 154 ft 3 kts 352°
2026-05-07 20:55 52.35835 13.50785 155 ft 16 kts 339°
2026-05-07 20:55 52.35850 13.50775 154 ft 1 kts 338°
2026-05-07 20:56 52.35863 13.50766 154 ft 2 kts 336°
2026-05-07 20:56 52.35907 13.50735 154 ft 14 kts 339°
2026-05-07 20:56 52.35954 13.50708 154 ft 2 kts 340°
2026-05-07 20:56 52.35962 13.50703 154 ft 0 kts 340°
2026-05-07 20:57 52.35964 13.50702 154 ft 1 kts 340°
2026-05-07 20:57 52.36001 13.50680 154 ft 10 kts 340°
2026-05-07 20:58 52.36107 13.50613 154 ft 23 kts 338°
2026-05-07 20:58 52.36278 13.50505 154 ft 27 kts 339°
2026-05-07 20:58 52.36459 13.50390 155 ft 29 kts 338°
2026-05-07 20:58 52.36528 13.50434 155 ft 6 kts 79°
2026-05-07 20:59 52.36537 13.50478 155 ft 1 kts 69°
2026-05-07 20:59 52.36538 13.50482 155 ft 1 kts 70°
2026-05-07 20:59 52.36541 13.50493 155 ft 1 kts 70°
2026-05-07 20:59 52.36541 13.50495 155 ft 0 kts 70°
2026-05-07 21:00 52.36541 13.50496 155 ft 0 kts 70°